Résultats de la compétition "Nationale SE " du 25-04-2010 organisée par la ligue AU
     
  Télécharger le fichier CSV.  
     
     

 Circuit "K Bis"

Licence Nom Prénom Temps CN
précédent
Score sur
la course
Différence
10396HABERKORNChloé0:29:3238213531-290
17925DROINSolene0:30:0624793464+985
11559ROULLEAUXJulie0:31:2539193319-600
16555PICAZOMarie0:31:5229273272+345
10184BODYMathilde0:32:5228913173+282
19276PETER-JANLucile0:33:3432733106-167
13800DELENNECamillia0:37:1424552801+346
19486BISSIERECamille0:37:1829742795-179
16137ELIASPauline0:37:4023432768+425
9402BORNARDJulie0:40:0319892604+615
17418LAFARGEEmeline0:41:1032282533-695
10430VALETTEMarion0:44:2018972352+455
19689GIRARDLucille0:45:5427412272-469
16393FOLLoreline0:46:0829432260-683
19894DEFIXJulia0:49:5021352092-43
23286JOURDANCindy0:51:47N/A2014N/A
9143PORTELouise0:53:2518941952+58
10758BESTELSandra0:54:3726241909-715
10091LUTHRINGERColine0:54:3821021909-193
22451RIVOLLIERIsaline0:55:3401877N/A
22860MASSINMargot0:56:08N/A1858N/A
12403FALGABeatrice0:56:1819441852-92
23287PHILIPPOTNelly0:56:40N/A1840N/A
22250PARENTMathilde1:08:4713341516+182
22762LERAYNelly1:15:39N/A1378N/A
19782MEYMilena1:58:531327877-450
12999MOUTAULTAnais2:03:581111841-270

  Indice de confiance du circuit (moyenne des différences entre CN et score sur la course des 3 à 10 premiers) : 282






 Retour